Date,TemperatureHighF,TemperatureAvgF,TemperatureLowF,DewpointHighF,DewpointAvgF,DewpointLowF,HumidityHigh,HumidityAvg,HumidityLow,PressureMaxIn,PressureMinIn,WindSpeedMaxMPH,WindSpeedAvgMPH,GustSpeedMaxMPH,PrecipitationSumIn
2013-2-1,25.0,21.7,19.0,21.0,16.3,12.0,89,79,70,0.00,40.00,0,-999,0,0.01
2013-2-2,30.0,23.3,17.0,17.0,12.3,8.0,83,63,45,0.00,40.00,0,-999,0,0.00
2013-2-3,36.0,27.9,22.0,13.0,6.2,3.0,63,41,24,0.00,40.00,0,-999,0,0.00
2013-2-4,30.0,25.9,22.0,17.0,12.9,8.0,67,57,50,0.00,40.00,0,-999,0,0.00
2013-2-5,35.0,27.4,20.0,21.0,15.3,8.0,80,60,47,0.00,40.00,0,-999,0,0.00
2013-2-6,28.0,22.4,14.0,20.0,14.0,8.0,91,71,44,0.00,40.00,0,-999,0,0.00
2013-2-7,36.0,23.4,10.0,11.0,-3.4,-12.0,84,38,15,0.00,40.00,0,-999,0,0.00
2013-2-8,29.0,23.3,17.0,7.0,-2.5,-15.0,67,34,14,0.00,40.00,0,-999,0,0.01
2013-2-9,22.0,16.3,13.0,18.0,13.5,9.0,94,88,80,0.00,40.00,0,-999,0,0.00
2013-2-10,13.0,8.7,3.0,11.0,5.8,-1.0,92,88,83,0.00,40.00,0,-999,0,0.01
2013-2-11,21.0,9.6,0.0,2.0,-4.3,-12.0,83,55,30,0.00,40.00,0,-999,0,0.00
2013-2-12,26.0,18.8,12.0,16.0,9.7,-4.0,79,68,45,0.00,40.00,0,-999,0,0.01
2013-2-13,28.0,21.2,17.0,18.0,14.0,11.0,92,74,53,0.00,40.00,0,-999,0,0.00
2013-2-14,17.0,10.2,6.0,14.0,6.0,3.0,91,83,68,0.00,40.00,0,-999,0,0.00
2013-2-15,24.0,16.6,9.0,19.0,11.4,6.0,91,80,60,0.00,40.00,0,-999,0,0.02
2013-2-16,39.0,28.6,21.0,20.0,15.3,9.0,84,59,34,0.00,40.00,0,-999,0,0.01
2013-2-17,31.0,21.1,13.0,19.0,10.6,1.0,95,69,28,0.00,40.00,0,-999,0,0.00
2013-2-18,18.0,11.1,6.0,12.0,5.7,-2.0,90,79,61,0.00,40.00,0,-999,0,0.00
2013-2-19,38.0,23.9,7.0,7.0,-4.4,-13.0,68,32,14,0.00,40.00,0,-999,0,0.01
2013-2-20,29.0,20.8,13.0,9.0,5.1,2.0,76,51,32,0.00,40.00,0,-999,0,0.01
2013-2-21,22.0,13.7,8.0,15.0,6.9,2.0,90,75,56,0.00,40.00,0,-999,0,0.00
2013-2-22,22.0,12.5,4.0,7.0,-1.4,-99.9,90,65,40,0.00,40.00,0,-999,0,0.00
2013-2-23,26.0,20.3,12.0,20.0,7.4,-99.9,93,72,62,0.00,40.00,0,-999,0,0.01
2013-2-24,18.0,12.4,7.0,11.0,2.3,-99.9,92,81,77,0.00,40.00,0,-999,0,0.02
2013-2-25,35.0,23.9,13.0,18.0,12.1,8.0,79,62,40,0.00,40.00,0,-999,0,0.01
2013-2-26,18.0,13.7,7.0,14.0,10.2,4.0,92,86,76,0.00,40.00,0,-999,0,0.01
2013-2-27,24.0,12.9,5.0,10.0,5.0,1.0,84,71,45,0.00,40.00,0,-999,0,0.00
2013-2-28,24.0,17.7,11.0,12.0,6.9,3.0,75,63,48,0.00,40.00,0,-999,0,0.00